SB KEPS @ AMSAT $ORB13276.N 2Line Orbital Elements 13276.AMSAT
HR AMSAT ORBITAL ELEMENTS FOR AMATEUR SATELLITES IN NASA FORMAT FROM WA5QGD FORT WORTH,TX October 3, 2013 BID: ORB13276.N
DECODE 2-LINE ELSETS WITH THE FOLLOWING KEY: 1 AAAAAU 00 0 0 BBBBB.BBBBBBBB .CCCCCCCC 00000-0 00000-0 0 DDDZ 2 AAAAA EEE.EEEE FFF.FFFF GGGGGGG HHH.HHHH III.IIII JJ.JJJJJJJJKKKKKZ KEY: A-CATALOGNUM B-EPOCHTIME C-DECAY D-ELSETNUM E-INCLINATION F-RAAN G-ECCENTRICITY H-ARGPERIGEE I-MNANOM J-MNMOTION K-ORBITNUM Z-CHECKSUM
TO ALL RADIO AMATEURS BT
AO-07 1 07530U 74089B 13276.81560454 -.00000052 00000-0 -52730-4 0 7915 2 07530 101.4436 262.4201 0012353 076.1664 042.5872 12.53598702779392 FO-29 1 24278U 96046B 13275.75090537 .00000016 00000-0 54402-4 0 2148 2 24278 098.5417 319.8677 0349711 245.2809 256.2690 13.53006470845854 SO-33 1 25509U 98061B 13275.82709870 .00000733 00000-0 13473-3 0 5950 2 25509 031.4303 178.1463 0350795 020.3341 032.4595 14.29140531780305 RS-22 1 27939U 03042A 13276.74630419 .00000571 00000-0 11578-3 0 8225 2 27939 097.7972 098.9471 0012681 198.9857 161.0876 14.64585877535182 VO-52 1 28650U 05017B 13275.79918507 .00001275 00000-0 15786-3 0 5427 2 28650 097.5657 288.8828 0024109 286.5230 126.4130 14.84164433455041 HO-68 1 36122U 09072B 13276.66379225 -.00000044 00000-0 00000 0 0 9562 2 36122 100.2924 330.9126 0007731 105.2603 254.9364 13.16307202182686 UO-11 1 14781U 84021B 13276.14328890 .00000561 00000-0 79166-4 0 3012 2 14781 097.8903 335.8460 0007438 300.0469 060.0005 14.81025529589912 AO-16 1 20439U 90005D 13276.78956532 .00000105 00000-0 54794-4 0 8545 2 20439 098.4799 214.3334 0010832 191.3700 227.3972 14.32209563237785 LO-19 1 20442U 90005G 13275.43053509 .00000124 00000-0 61568-4 0 7910 2 20442 098.4496 214.4511 0011908 185.8505 312.5973 14.32418181237783 AO-27 1 22825U 93061C 13276.70130911 .00000078 00000-0 47706-4 0 4931 2 22825 098.6291 219.6262 0007719 337.2113 141.6291 14.29593316 44137 IO-26 1 22826U 93061D 13274.84840500 .00000089 00000-0 51646-4 0 2474 2 22826 098.6230 218.0563 0008219 335.0202 084.4126 14.29880209 44006 GO-32 1 25397U 98043D 13276.46423163 .00000039 00000-0 35491-4 0 1752 2 25397 098.4306 239.5866 0001243 040.2558 109.1936 14.23361306791343 NO-44 1 26931U 01043C 13276.60851662 .00000043 00000-0 48803-4 0 4339 2 26931 067.0528 340.0064 0007557 265.9949 245.0968 14.29963159626924 SO-50 1 27607U 02058C 13276.05603549 .00000453 00000-0 90618-4 0 1877 2 27607 064.5563 295.7165 0034160 122.3696 262.3834 14.73091742579604 CO-55 1 27844U 03031E 13276.63031858 .00000144 00000-0 86227-4 0 7553 2 27844 098.7023 284.1340 0008615 298.2071 182.5658 14.21276387532137 CO-57 1 27848U 03031J 13276.58161846 .00000131 00000-0 80873-4 0 6985 2 27848 098.7111 283.6562 0008557 305.3479 175.8920 14.20994794532052 AO-51 1 28375U 04025K 13276.76884971 .00000202 00000-0 72816-4 0 6691 2 28375 098.2155 227.9394 0084214 048.4137 013.2612 14.41165559486979 CP3 1 31129U 07012N 13276.80978306 .00000614 00000-0 14668-3 0 5687 2 31129 097.9082 263.3766 0101400 089.5176 029.5815 14.53821420342771 CO-65 1 32785U 08021C 13276.79657934 .00000837 00000-0 10632-3 0 7536 2 32785 097.7383 331.1762 0012869 314.1622 110.2827 14.84136685293980 PRISM 1 33493U 09002B 13276.80574827 .00004588 00000-0 52307-3 0 2340 2 33493 098.2297 077.4502 0017874 196.1363 163.9289 14.86553108254057 SOHLA-1 1 33496U 09002E 13276.48369049 .00000311 00000-0 59677-4 0 1634 2 33496 098.1464 032.2904 0005811 348.2956 139.8935 14.70380190251785 SO-67 1 35870U 09049F 13276.84318638 .00006980 00000-0 25698-3 0 4806 2 35870 097.1842 301.7410 0001010 024.5160 096.5922 15.28143304224846 TISAT-1 1 36799U 10035E 13276.84414735 .00002823 00000-0 34752-3 0 5016 2 36799 098.0303 002.1815 0015802 078.0028 282.2930 14.83703664174681 STUDSAT 1 36801U 10035G 13276.17150304 .00012788 00000-0 13420-2 0 6891 2 36801 098.0438 005.7213 0011794 059.6550 358.7801 14.89597408174786 ALMASAT-1 1 38078U 12006B 13276.54125693 .00030639 00000-0 73322-3 0 6661 2 38078 069.4777 308.6277 0677580 007.4362 353.6231 14.29491958 84700 XATCOBEO 1 38082U 12006F 13276.76913528 .00119912 54794-5 20298-2 0 5503 2 38082 069.4698 269.2472 0520079 345.8585 012.8718 14.69932785 85800 SOMP 1 39135U 13015F 13276.84220979 .00004428 00000-0 35856-3 0 3421 2 39135 064.8772 227.1986 0001959 279.2084 080.8863 15.00957597 25130 CUBEBUG-1 1 39153U 13018D 13276.83363537 .00001372 00000-0 20318-3 0 4615 2 39153 098.0661 352.5502 0019745 095.6079 264.7338 14.76635918 23713 ESTCUBE-1 1 39161U 13021C 13276.80245754 .00001733 00000-0 30297-3 0 4219 2 39161 098.1209 354.4563 0011005 125.0253 235.1994 14.69134873 21941 NOAA-10 1 16969U 86073A 13276.55904697 .00000036 00000-0 32147-4 0 5186 2 16969 098.5379 301.9993 0011077 288.1112 234.3592 14.27667529407409 NOAA-11 1 19531U 88089A 13276.27895714 .00000090 00000-0 68556-4 0 5342 2 19531 098.7046 356.7314 0010221 315.6158 080.4749 14.15029355291413 NOAA-12 1 21263U 91032A 13276.49276634 .00000021 00000-0 27617-4 0 9966 2 21263 098.6901 300.9857 0012804 263.2231 225.5017 14.25588266163981 MET-3/5 1 21655U 91056A 13276.73141921 -.00000181 00000-0 -50277-3 0 7980 2 21655 082.5588 177.6119 0012638 214.4415 145.5889 13.17052266 64227 MET-2/21 1 22782U 93055A 13276.75255699 .00000084 00000-0 62652-4 0 8592 2 22782 082.5530 016.7731 0021194 263.3829 260.6798 13.83714599 14655 OKEAN-4 1 23317U 94066A 13276.83247685 .00000545 00000-0 61387-4 0 3406 2 23317 082.5371 308.0974 0020321 223.1870 130.7165 14.84653837 25050 NOAA-14 1 23455U 94089A 13276.49623885 .00000016 00000-0 31214-4 0 4743 2 23455 098.7976 359.2676 0010120 055.3850 066.4385 14.13922431967672 NOAA-15 1 25338U 98030A 13276.48862792 .00000104 00000-0 62835-4 0 8976 2 25338 098.7347 266.1576 0011078 167.7797 345.0755 14.25270409800275 RESURS 1 25394U 98043A 13276.68123795 .00000004 00000-0 19484-4 0 4840 2 25394 098.3768 247.3903 0000364 350.5666 061.5517 14.24336997791806 FENGYUN1 1 25730U 99025A 13276.13618296 .00001536 00000-0 88131-3 0 9772 2 25730 098.8893 234.3798 0027042 104.1928 320.6896 14.10689437741267 OKEAN-0 1 25860U 99039A 13275.79553985 .00000489 00000-0 80717-4 0 618 2 25860 098.0054 236.8861 0001888 123.0853 297.2761 14.74710988764213 NOAA-16 1 26536U 00055A 13276.48344404 .00000111 00000-0 84244-4 0 3861 2 26536 099.0293 330.2550 0010793 185.2863 288.5255 14.12922882671869 NOAA-17 1 27453U 02032A 13276.53083632 .00000089 00000-0 55826-4 0 2942 2 27453 098.3126 284.8673 0011487 202.0793 321.5420 14.24622984586147 NOAA-18 1 28654U 05018A 13276.51343014 .00000011 00000-0 31421-4 0 7826 2 28654 099.1149 246.3610 0013307 264.0402 199.1843 14.11870613431346 NOAA-19 1 33591U 09005A 13276.49210050 .00000194 00000-0 13119-3 0 9582 2 33591 098.9133 217.7450 0015063 121.9925 012.0422 14.11555761239771 HUBBLE 1 20580U 90037B 13275.45619910 .00002396 00000-0 15723-3 0 3442 2 20580 028.4703 289.4430 0003420 056.6110 090.5967 15.03971566 85865 ISS 1 25544U 98067A 13276.86441108 .00015056 00000-0 27674-3 0 7322 2 25544 051.6501 289.7748 0002161 348.8117 071.8916 15.49429503851566 CO-58 1 28895U 05043F 13276.55154365 .00000467 00000-0 10342-3 0 5870 2 28895 097.8557 126.5204 0019002 100.3359 259.9986 14.61247192422764 FALCON 1 30776U 07006E 13276.37509729 .00006049 00000-0 35157-3 0 7099 2 30776 035.4306 257.7519 0002121 210.2316 274.5568 15.11536642361790 MAST 1 31126U 07012K 13275.80814012 .00000635 00000-0 14973-3 0 8670 2 31126 097.8904 265.6408 0094394 077.5393 041.7181 14.54685344342966 CAPE1 1 31130U 07012P 13276.73991399 .00000544 00000-0 13150-3 0 8699 2 31130 097.9091 262.9265 0101847 090.7518 270.5350 14.53634682342540 COMPASS 1 32787U 08021E 13275.76038776 .00002051 00000-0 24094-3 0 7437 2 32787 097.7400 331.4937 0013164 312.6825 047.3281 14.85913599293933 AAUSAT2 1 32788U 08021F 13275.73428676 .00002596 00000-0 29980-3 0 7272 2 32788 097.7409 332.1874 0012715 311.9240 048.0891 14.86409020293974 DO-64 1 32789U 08021G 13276.78868515 .00004442 00000-0 47331-3 0 7619 2 32789 097.7577 337.6617 0011996 299.0276 194.2472 14.89345576294283 CO-66 1 32791U 08021J 13275.80203330 .00001781 00000-0 21488-3 0 7227 2 32791 097.7399 330.7504 0013729 314.4548 110.4636 14.84971852293847 RS-30 1 32953U 08025A 13276.71865554 .00000010 00000-0 00000 0 0 2686 2 32953 082.5085 000.6975 0018567 359.5639 000.5421 12.43037607243392 METEOR-M 1 35865U 09049A 13276.59373037 -.00000044 00000-0 -46459-6 0 8606 2 35865 098.5890 326.2892 0003404 107.5222 252.6328 14.21893263209873 RS-38 1 35869U 09049E 13276.67844350 -.00000035 00000-0 32709-5 0 8151 2 35869 098.5831 326.2548 0005307 115.0992 245.0782 14.22146695209918 JUGNU 1 37839U 11058B 13276.63594388 .00000387 00000-0 65031-4 0 4756 2 37839 019.9627 009.6592 0019324 037.7544 102.7123 14.12185031102247 SRMSAT 1 37841U 11058D 13276.70356926 .00000370 00000-0 59118-4 0 4752 2 37841 019.9733 023.4527 0012142 348.6291 162.2099 14.10250888102114 RAX-2 1 37853U 11061D 13276.59192483 .00006009 00000-0 44885-3 0 6102 2 37853 101.6983 180.4681 0232756 076.4040 041.2158 14.84384257104529 AUBIESAT 1 37854U 11061E 13276.68431672 .00006435 00000-0 46955-3 0 5998 2 37854 101.7022 181.7053 0232460 074.4625 341.4333 14.85173557104565 HRBE 1 37855U 11061F 13276.71007295 .00005959 00000-0 43840-3 0 6062 2 37855 101.7022 181.4177 0233562 075.0125 315.7207 14.84798672104559 RS-39 1 38051U 11062C 13276.78639823 .00021659 00000-0 62584-3 0 8521 2 38051 051.6334 045.2637 0010687 299.2002 145.1762 15.35527732 94452 E-STAR 1 38079U 12006C 13276.44546448 .00099167 45763-5 18436-2 0 4939 2 38079 069.4702 280.8981 0572570 352.3931 120.6089 14.57001433 85451 GOLIAT 1 38085U 12006J 13276.67540276 .00080964 40559-5 15133-2 0 4321 2 38085 069.4724 283.4586 0584494 353.6549 005.7499 14.54414505 85407 HORYU-2 1 38340U 12025D 13276.11645427 .00001369 00000-0 23046-3 0 6272 2 38340 098.2271 224.7790 0011217 273.8085 086.1933 14.71193856 73987 RS-40 1 38736U 12041D 13275.61829704 .00000010 00000-0 00000 0 0 3905 2 38736 082.4738 088.1427 0022174 091.8643 268.4975 12.42871286 53592 PROITERES 1 38756U 12047B 13276.84250579 .00001144 00000-0 18047-3 0 1829 2 38756 098.2458 355.8471 0013857 118.2491 242.0112 14.74349752 57404 RAIKO 1 38852U 98067CN 13218.07382584 .24681979 12625-4 36599-3 0 3409 2 38852 051.6160 184.0336 0004489 261.9162 100.6538 16.48474690 47849 FITSAT 1 1 38853U 98067CP 13184.86912902 .06638326 12312-4 50483-3 0 3153 2 38853 051.6252 351.6077 0011722 245.9321 114.2104 16.39337660 42708 TechEdSat 1 38854U 98067CQ 13124.93253577 .11592855 12481-4 94246-3 0 2908 2 38854 051.6449 297.0261 0010505 310.8629 049.0629 16.38844728 33294 F 1 1 38855U 98067CR 13129.77714356 .27424026 12535-4 30797-3 0 2871 2 38855 051.5085 272.4145 0008326 194.2908 166.5495 16.49710473 33949 WeWish 1 38856U 98067CS 13069.98095549 .16701328 12537-4 10063-2 0 2487 2 38856 051.6166 215.0521 0008325 316.0438 044.8765 16.41348316 24586 OSSI-1 1 39131U 13015B 13188.41684431 .01502874 74059-5 44818-3 0 85 2 39131 064.8841 114.8425 0051126 026.6892 350.0589 16.22925119 12374 BEESAT-3 1 39134U 13015E 13276.83568782 .00004452 00000-0 35940-3 0 3865 2 39134 064.8773 227.1715 0002012 268.3895 091.7024 15.01066132 25137 BEESAT-2 1 39136U 13015G 13276.04089473 .00003361 00000-0 27537-3 0 3787 2 39136 064.8775 229.7050 0001904 273.4453 086.6459 15.00950401 25019 /EX